Time,TemperatureF,DewpointF,PressureIn,WindDirection,WindDirectionDegrees,WindSpeedMPH,WindSpeedGustMPH,Humidity,HourlyPrecipIn,Conditions,Clouds,dailyrainin,SoftwareType,DateUTC
2013-03-27 00:00:00,33.8,23.2,30.22,WSW,248,2.5,2.9,65,0.00,,,0.00,WUHU216HW,2013-03-27 05:00:00,
2013-03-27 00:05:00,33.7,23.0,30.22,WNW,293,1.8,2.5,65,0.00,,,0.00,WUHU216HW,2013-03-27 05:05:00,
2013-03-27 00:10:00,33.7,23.0,30.22,NW,315,2.5,3.1,65,0.00,,,0.00,WUHU216HW,2013-03-27 05:10:00,
2013-03-27 00:15:00,33.5,22.9,30.22,West,270,2.5,3.1,65,0.00,,,0.00,WUHU216HW,2013-03-27 05:15:00,
2013-03-27 00:20:00,33.5,22.9,30.22,WNW,293,3.4,3.6,65,0.00,,,0.00,WUHU216HW,2013-03-27 05:20:00,
2013-03-27 00:25:00,33.5,22.9,30.22,NW,315,1.8,3.8,65,0.00,,,0.00,WUHU216HW,2013-03-27 05:25:00,
2013-03-27 00:30:00,33.5,23.2,30.22,NW,315,2.9,3.8,66,0.00,,,0.00,WUHU216HW,2013-03-27 05:30:00,
2013-03-27 00:35:00,33.5,22.5,30.22,West,270,3.1,4.5,64,0.00,,,0.00,WUHU216HW,2013-03-27 05:35:00,
2013-03-27 00:40:00,33.7,22.0,30.22,West,270,0.9,4.7,62,0.00,,,0.00,WUHU216HW,2013-03-27 05:40:00,
2013-03-27 00:45:00,33.8,22.1,30.22,WNW,293,2.7,4.7,62,0.00,,,0.00,WUHU216HW,2013-03-27 05:45:00,
2013-03-27 00:50:00,33.8,21.8,30.22,West,270,1.8,4.3,61,0.00,,,0.00,WUHU216HW,2013-03-27 05:50:00,
2013-03-27 00:55:00,33.8,22.1,30.22,West,270,1.8,4.3,62,0.00,,,0.00,WUHU216HW,2013-03-27 05:55:00,
2013-03-27 01:00:00,33.7,22.0,30.22,WNW,293,1.3,3.8,62,0.00,,,0.00,WUHU216HW,2013-03-27 06:00:00,
2013-03-27 01:05:00,33.5,21.8,30.22,West,270,3.4,3.4,62,0.00,,,0.00,WUHU216HW,2013-03-27 06:05:00,
2013-03-27 01:10:00,33.5,21.8,30.22,WNW,293,3.4,5.4,62,0.00,,,0.00,WUHU216HW,2013-03-27 06:10:00,
2013-03-27 01:15:00,33.5,21.8,30.22,West,270,4.5,5.4,62,0.00,,,0.00,WUHU216HW,2013-03-27 06:15:00,
2013-03-27 01:20:00,33.5,21.8,30.22,WNW,293,2.5,4.9,62,0.00,,,0.00,WUHU216HW,2013-03-27 06:20:00,
2013-03-27 01:25:00,33.5,21.8,30.22,WNW,293,2.2,4.7,62,0.00,,,0.00,WUHU216HW,2013-03-27 06:25:00,
2013-03-27 01:30:00,33.5,22.1,30.22,West,270,1.8,4.0,63,0.00,,,0.00,WUHU216HW,2013-03-27 06:30:00,
2013-03-27 01:35:00,33.5,22.5,30.22,NW,315,1.3,3.4,64,0.00,,,0.00,WUHU216HW,2013-03-27 06:35:00,
2013-03-27 01:40:00,33.3,22.4,30.22,WSW,248,0.9,2.7,64,0.00,,,0.00,WUHU216HW,2013-03-27 06:40:00,
2013-03-27 01:45:00,33.1,22.6,30.22,WNW,293,2.0,3.1,65,0.00,,,0.00,WUHU216HW,2013-03-27 06:45:00,
2013-03-27 01:50:00,33.1,22.2,30.22,West,270,1.8,3.6,64,0.00,,,0.00,WUHU216HW,2013-03-27 06:50:00,
2013-03-27 01:55:00,33.3,22.4,30.23,West,270,3.8,4.7,64,0.00,,,0.00,WUHU216HW,2013-03-27 06:55:00,
2013-03-27 02:00:00,33.3,22.4,30.23,West,270,1.8,4.9,64,0.00,,,0.00,WUHU216HW,2013-03-27 07:00:00,
2013-03-27 02:05:00,33.3,22.1,30.22,WSW,248,3.1,5.1,63,0.00,,,0.00,WUHU216HW,2013-03-27 07:05:00,
2013-03-27 02:10:00,33.3,22.4,30.22,WNW,293,3.8,5.1,64,0.00,,,0.00,WUHU216HW,2013-03-27 07:10:00,
2013-03-27 02:15:00,33.1,22.2,30.22,WSW,248,4.0,5.1,64,0.00,,,0.00,WUHU216HW,2013-03-27 07:15:00,
2013-03-27 02:20:00,33.1,22.2,30.22,NW,315,2.5,5.1,64,0.00,,,0.00,WUHU216HW,2013-03-27 07:20:00,
2013-03-27 02:25:00,33.1,22.6,30.22,WNW,293,3.4,4.7,65,0.00,,,0.00,WUHU216HW,2013-03-27 07:25:00,
2013-03-27 02:30:00,33.1,22.2,30.22,WNW,293,3.6,5.8,64,0.00,,,0.00,WUHU216HW,2013-03-27 07:30:00,
2013-03-27 02:35:00,32.9,22.1,30.22,NW,315,5.4,5.8,64,0.00,,,0.00,WUHU216HW,2013-03-27 07:35:00,
2013-03-27 02:40:00,32.9,22.1,30.22,WNW,293,4.0,5.4,64,0.00,,,0.00,WUHU216HW,2013-03-27 07:40:00,
2013-03-27 02:45:00,32.9,22.4,30.22,WNW,293,4.3,5.8,65,0.00,,,0.00,WUHU216HW,2013-03-27 07:45:00,
2013-03-27 02:50:00,32.9,22.4,30.22,WNW,293,3.4,5.8,65,0.00,,,0.00,WUHU216HW,2013-03-27 07:50:00,
2013-03-27 02:55:00,32.9,22.4,30.22,WNW,293,3.1,4.5,65,0.00,,,0.00,WUHU216HW,2013-03-27 07:55:00,
2013-03-27 03:00:00,32.9,22.8,30.22,WSW,248,1.3,3.8,66,0.00,,,0.00,WUHU216HW,2013-03-27 08:00:00,
2013-03-27 03:05:00,32.8,23.0,30.22,West,270,2.9,3.4,67,0.00,,,0.00,WUHU216HW,2013-03-27 08:05:00,
2013-03-27 03:10:00,32.8,23.0,30.22,WNW,293,2.2,4.0,67,0.00,,,0.00,WUHU216HW,2013-03-27 08:10:00,
2013-03-27 03:15:00,32.8,23.0,30.22,NW,315,3.8,4.7,67,0.00,,,0.00,WUHU216HW,2013-03-27 08:15:00,
2013-03-27 03:20:00,32.8,23.0,30.22,WNW,293,3.4,4.9,67,0.00,,,0.00,WUHU216HW,2013-03-27 08:20:00,
2013-03-27 03:25:00,32.8,23.0,30.22,West,270,2.0,4.9,67,0.00,,,0.00,WUHU216HW,2013-03-27 08:25:00,
2013-03-27 03:30:00,32.8,23.3,30.22,West,270,3.4,4.0,68,0.00,,,0.00,WUHU216HW,2013-03-27 08:30:00,
2013-03-27 03:35:00,32.6,23.1,30.22,WNW,293,2.9,3.8,68,0.00,,,0.00,WUHU216HW,2013-03-27 08:35:00,
2013-03-27 03:40:00,32.6,23.5,30.22,WNW,293,2.9,3.6,69,0.00,,,0.00,WUHU216HW,2013-03-27 08:40:00,
2013-03-27 03:45:00,32.4,23.4,30.22,NW,315,3.4,3.6,69,0.00,,,0.00,WUHU216HW,2013-03-27 08:45:00,
2013-03-27 03:50:00,32.4,23.8,30.22,WNW,293,2.0,3.6,70,0.00,,,0.00,WUHU216HW,2013-03-27 08:50:00,
2013-03-27 03:55:00,32.4,23.8,30.22,NW,315,2.5,5.4,70,0.00,,,0.00,WUHU216HW,2013-03-27 08:55:00,
2013-03-27 04:00:00,32.4,23.4,30.22,NW,315,2.5,5.4,69,0.00,,,0.00,WUHU216HW,2013-03-27 09:00:00,
2013-03-27 04:05:00,32.4,23.8,30.22,WNW,293,4.5,4.9,70,0.00,,,0.00,WUHU216HW,2013-03-27 09:05:00,
2013-03-27 04:10:00,32.4,23.8,30.22,West,270,4.0,6.0,70,0.00,,,0.00,WUHU216HW,2013-03-27 09:10:00,
2013-03-27 04:15:00,32.4,23.8,30.22,West,270,4.0,6.0,70,0.00,,,0.00,WUHU216HW,2013-03-27 09:15:00,
2013-03-27 04:20:00,32.4,23.8,30.22,NW,315,4.3,7.6,70,0.00,,,0.00,WUHU216HW,2013-03-27 09:20:00,
2013-03-27 04:25:00,32.4,23.8,30.22,NW,315,3.1,7.6,70,0.00,,,0.00,WUHU216HW,2013-03-27 09:25:00,
2013-03-27 04:30:00,32.4,23.8,30.22,NW,315,2.5,5.4,70,0.00,,,0.00,WUHU216HW,2013-03-27 09:30:00,
2013-03-27 04:35:00,32.4,23.8,30.22,WNW,293,2.2,5.4,70,0.00,,,0.00,WUHU216HW,2013-03-27 09:35:00,
2013-03-27 04:40:00,32.4,23.8,30.22,WNW,293,2.9,4.7,70,0.00,,,0.00,WUHU216HW,2013-03-27 09:40:00,
2013-03-27 04:45:00,32.2,23.9,30.22,WNW,293,3.4,4.3,71,0.00,,,0.00,WUHU216HW,2013-03-27 09:45:00,
2013-03-27 04:50:00,32.4,24.0,30.22,NW,315,2.9,4.0,71,0.00,,,0.00,WUHU216HW,2013-03-27 09:50:00,
2013-03-27 04:55:00,32.2,24.2,30.22,West,270,1.1,4.0,72,0.00,,,0.00,WUHU216HW,2013-03-27 09:55:00,
2013-03-27 05:00:00,32.2,24.2,30.22,WSW,248,1.8,3.4,72,0.00,,,0.00,WUHU216HW,2013-03-27 10:00:00,
2013-03-27 05:05:00,32.2,24.2,30.22,NW,315,2.5,3.6,72,0.00,,,0.00,WUHU216HW,2013-03-27 10:05:00,
2013-03-27 05:10:00,32.2,24.2,30.22,NW,315,2.2,4.3,72,0.00,,,0.00,WUHU216HW,2013-03-27 10:10:00,
2013-03-27 05:15:00,32.0,24.0,30.22,NW,315,2.2,4.3,72,0.00,,,0.00,WUHU216HW,2013-03-27 10:15:00,
2013-03-27 05:20:00,32.0,24.4,30.23,WNW,293,3.6,4.0,73,0.00,,,0.00,WUHU216HW,2013-03-27 10:20:00,
2013-03-27 05:25:00,32.0,24.4,30.23,WNW,293,2.9,3.8,73,0.00,,,0.00,WUHU216HW,2013-03-27 10:25:00,
2013-03-27 05:30:00,32.0,24.4,30.23,NW,315,2.5,4.0,73,0.00,,,0.00,WUHU216HW,2013-03-27 10:30:00,
2013-03-27 05:35:00,32.0,24.4,30.23,NW,315,2.5,4.0,73,0.00,,,0.00,WUHU216HW,2013-03-27 10:35:00,
2013-03-27 05:40:00,32.0,24.4,30.23,West,270,2.2,3.4,73,0.00,,,0.00,WUHU216HW,2013-03-27 10:40:00,
2013-03-27 05:45:00,32.0,24.4,30.23,WNW,293,2.5,3.6,73,0.00,,,0.00,WUHU216HW,2013-03-27 10:45:00,
2013-03-27 05:50:00,32.0,24.4,30.22,NW,315,1.8,3.6,73,0.00,,,0.00,WUHU216HW,2013-03-27 10:50:00,
2013-03-27 05:55:00,32.0,24.4,30.22,WNW,293,1.8,3.6,73,0.00,,,0.00,WUHU216HW,2013-03-27 10:55:00,
2013-03-27 06:00:00,32.0,24.4,30.23,WNW,293,2.5,4.0,73,0.00,,,0.00,WUHU216HW,2013-03-27 11:00:00,
2013-03-27 06:05:00,32.0,24.4,30.23,West,270,1.8,4.0,73,0.00,,,0.00,WUHU216HW,2013-03-27 11:05:00,
2013-03-27 06:10:00,32.0,24.4,30.23,WNW,293,2.7,2.9,73,0.00,,,0.00,WUHU216HW,2013-03-27 11:10:00,
2013-03-27 06:15:00,32.0,24.7,30.23,WNW,293,2.7,3.6,74,0.00,,,0.00,WUHU216HW,2013-03-27 11:15:00,
2013-03-27 06:20:00,32.0,24.7,30.23,NW,315,2.5,3.8,74,0.00,,,0.00,WUHU216HW,2013-03-27 11:20:00,
2013-03-27 06:25:00,31.9,24.2,30.23,WNW,293,2.5,3.8,73,0.00,,,0.00,WUHU216HW,2013-03-27 11:25:00,
2013-03-27 06:30:00,32.0,24.4,30.23,West,270,1.6,3.6,73,0.00,,,0.00,WUHU216HW,2013-03-27 11:30:00,
2013-03-27 06:35:00,32.0,24.4,30.23,West,270,1.8,4.0,73,0.00,,,0.00,WUHU216HW,2013-03-27 11:35:00,
2013-03-27 06:40:00,32.0,24.7,30.23,West,270,1.8,4.0,74,0.00,,,0.00,WUHU216HW,2013-03-27 11:40:00,
2013-03-27 06:45:00,32.0,24.7,30.24,WNW,293,3.1,3.1,74,0.00,,,0.00,WUHU216HW,2013-03-27 11:45:00,
2013-03-27 06:50:00,32.0,24.7,30.24,WNW,293,1.1,3.4,74,0.00,,,0.00,WUHU216HW,2013-03-27 11:50:00,
2013-03-27 06:55:00,32.0,24.7,30.24,West,270,1.3,3.4,74,0.00,,,0.00,WUHU216HW,2013-03-27 11:55:00,
2013-03-27 07:00:00,32.0,24.7,30.24,WNW,293,0.7,1.8,74,0.00,,,0.00,WUHU216HW,2013-03-27 12:00:00,
2013-03-27 07:05:00,32.0,24.7,30.24,WNW,293,0.9,1.6,74,0.00,,,0.00,WUHU216HW,2013-03-27 12:05:00,
2013-03-27 07:10:00,32.0,24.7,30.24,NW,315,1.8,1.8,74,0.00,,,0.00,WUHU216HW,2013-03-27 12:10:00,
2013-03-27 07:15:00,32.0,24.7,30.25,WNW,293,0.9,2.9,74,0.00,,,0.00,WUHU216HW,2013-03-27 12:15:00,
2013-03-27 07:20:00,32.0,24.4,30.25,WNW,293,1.1,2.9,73,0.00,,,0.00,WUHU216HW,2013-03-27 12:20:00,
2013-03-27 07:25:00,32.2,24.6,30.25,NW,315,2.0,3.1,73,0.00,,,0.00,WUHU216HW,2013-03-27 12:25:00,
2013-03-27 07:30:00,32.4,24.7,30.25,WNW,293,1.6,3.6,73,0.00,,,0.00,WUHU216HW,2013-03-27 12:30:00,
2013-03-27 07:35:00,32.6,24.8,30.25,WSW,248,0.2,3.6,73,0.00,,,0.00,WUHU216HW,2013-03-27 12:35:00,
2013-03-27 07:40:00,32.8,25.0,30.26,WNW,293,1.1,1.8,73,0.00,,,0.00,WUHU216HW,2013-03-27 12:40:00,
2013-03-27 07:45:00,32.8,25.0,30.26,WNW,293,2.2,2.2,73,0.00,,,0.00,WUHU216HW,2013-03-27 12:45:00,
2013-03-27 07:50:00,32.8,25.0,30.25,West,270,2.2,4.0,73,0.00,,,0.00,WUHU216HW,2013-03-27 12:50:00,
2013-03-27 07:55:00,32.8,25.0,30.26,WNW,293,2.5,4.0,73,0.00,,,0.00,WUHU216HW,2013-03-27 12:55:00,
2013-03-27 08:00:00,32.9,25.2,30.26,West,270,2.7,4.0,73,0.00,,,0.00,WUHU216HW,2013-03-27 13:00:00,
2013-03-27 08:05:00,32.9,24.8,30.26,WNW,293,3.8,4.3,72,0.00,,,0.00,WUHU216HW,2013-03-27 13:05:00,
2013-03-27 08:10:00,33.1,25.0,30.26,West,270,1.6,4.3,72,0.00,,,0.00,WUHU216HW,2013-03-27 13:10:00,
2013-03-27 08:15:00,33.1,25.0,30.26,NW,315,3.1,4.3,72,0.00,,,0.00,WUHU216HW,2013-03-27 13:15:00,
2013-03-27 08:20:00,33.3,24.8,30.26,WSW,248,3.4,5.4,71,0.00,,,0.00,WUHU216HW,2013-03-27 13:20:00,
2013-03-27 08:25:00,33.5,25.0,30.26,WNW,293,3.4,5.4,71,0.00,,,0.00,WUHU216HW,2013-03-27 13:25:00,
2013-03-27 08:30:00,33.5,24.7,30.26,NW,315,2.5,4.9,70,0.00,,,0.00,WUHU216HW,2013-03-27 13:30:00,
2013-03-27 08:35:00,33.7,25.2,30.27,NNW,338,1.6,4.0,71,0.00,,,0.00,WUHU216HW,2013-03-27 13:35:00,
2013-03-27 08:40:00,33.8,25.0,30.26,West,270,3.1,4.3,70,0.00,,,0.00,WUHU216HW,2013-03-27 13:40:00,
2013-03-27 08:45:00,33.8,25.0,30.26,West,270,3.4,4.3,70,0.00,,,0.00,WUHU216HW,2013-03-27 13:45:00,
2013-03-27 08:50:00,33.8,25.0,30.26,WNW,293,5.4,5.6,70,0.00,,,0.00,WUHU216HW,2013-03-27 13:50:00,
2013-03-27 08:55:00,34.0,25.2,30.27,NW,315,2.5,5.6,70,0.00,,,0.00,WUHU216HW,2013-03-27 13:55:00,
2013-03-27 09:00:00,34.2,25.4,30.26,NW,315,2.2,5.4,70,0.00,,,0.00,WUHU216HW,2013-03-27 14:00:00,
2013-03-27 09:05:00,34.2,25.0,30.26,WNW,293,2.7,4.3,69,0.00,,,0.00,WUHU216HW,2013-03-27 14:05:00,
2013-03-27 09:10:00,34.4,25.6,30.26,West,270,3.1,5.4,70,0.00,,,0.00,WUHU216HW,2013-03-27 14:10:00,
2013-03-27 09:15:00,34.6,25.7,30.26,WNW,293,2.5,5.4,70,0.00,,,0.00,WUHU216HW,2013-03-27 14:15:00,
2013-03-27 09:20:00,34.6,25.7,30.26,West,270,2.9,5.4,70,0.00,,,0.00,WUHU216HW,2013-03-27 14:20:00,
2013-03-27 09:25:00,34.9,26.1,30.26,West,270,3.6,5.4,70,0.00,,,0.00,WUHU216HW,2013-03-27 14:25:00,
2013-03-27 09:30:00,35.1,26.3,30.26,WNW,293,3.1,4.3,70,0.00,,,0.00,WUHU216HW,2013-03-27 14:30:00,
2013-03-27 09:35:00,35.6,26.5,30.26,WNW,293,3.4,4.0,69,0.00,,,0.00,WUHU216HW,2013-03-27 14:35:00,
2013-03-27 09:40:00,35.6,26.5,30.26,NW,315,2.0,4.0,69,0.00,,,0.00,WUHU216HW,2013-03-27 14:40:00,
2013-03-27 09:45:00,35.8,26.3,30.26,West,270,2.5,4.0,68,0.00,,,0.00,WUHU216HW,2013-03-27 14:45:00,
2013-03-27 09:50:00,36.0,26.1,30.26,NW,315,3.6,4.7,67,0.00,,,0.00,WUHU216HW,2013-03-27 14:50:00,
2013-03-27 09:55:00,35.8,25.6,30.27,WNW,293,3.4,5.4,66,0.00,,,0.00,WUHU216HW,2013-03-27 14:55:00,
2013-03-27 10:00:00,36.0,26.1,30.27,WNW,293,3.6,5.4,67,0.00,,,0.00,WUHU216HW,2013-03-27 15:00:00,
2013-03-27 10:05:00,36.0,26.1,30.27,NW,315,3.6,5.8,67,0.00,,,0.00,WUHU216HW,2013-03-27 15:05:00,
2013-03-27 10:10:00,36.4,26.5,30.27,NNW,338,3.1,5.8,67,0.00,,,0.00,WUHU216HW,2013-03-27 15:10:00,
2013-03-27 10:15:00,36.7,26.0,30.27,WNW,293,3.1,4.7,65,0.00,,,0.00,WUHU216HW,2013-03-27 15:15:00,
2013-03-27 10:20:00,36.9,25.8,30.27,NW,315,4.3,5.4,64,0.00,,,0.00,WUHU216HW,2013-03-27 15:20:00,
2013-03-27 10:25:00,37.1,25.7,30.27,NW,315,3.6,5.4,63,0.00,,,0.00,WUHU216HW,2013-03-27 15:25:00,
2013-03-27 10:30:00,37.1,26.0,30.27,NW,315,5.1,5.4,64,0.00,,,0.00,WUHU216HW,2013-03-27 15:30:00,
2013-03-27 10:35:00,37.4,26.4,30.27,NW,315,4.3,5.6,64,0.00,,,0.00,WUHU216HW,2013-03-27 15:35:00,
2013-03-27 10:40:00,37.6,26.1,30.27,NW,315,2.9,5.6,63,0.00,,,0.00,WUHU216HW,2013-03-27 15:40:00,
2013-03-27 10:45:00,37.8,26.3,30.27,NW,315,3.4,5.4,63,0.00,,,0.00,WUHU216HW,2013-03-27 15:45:00,
2013-03-27 10:50:00,38.2,26.7,30.28,West,270,4.7,5.4,63,0.00,,,0.00,WUHU216HW,2013-03-27 15:50:00,
2013-03-27 10:55:00,38.3,26.4,30.28,NW,315,4.0,4.7,62,0.00,,,0.00,WUHU216HW,2013-03-27 15:55:00,
2013-03-27 11:00:00,38.3,26.0,30.28,NW,315,5.1,6.9,61,0.00,,,0.00,WUHU216HW,2013-03-27 16:00:00,
2013-03-27 11:05:00,38.5,26.9,30.28,WNW,293,3.6,6.9,63,0.00,,,0.00,WUHU216HW,2013-03-27 16:05:00,
2013-03-27 11:10:00,38.9,26.6,30.28,WNW,293,3.1,5.1,61,0.00,,,0.00,WUHU216HW,2013-03-27 16:10:00,
2013-03-27 11:15:00,39.4,27.0,30.27,WNW,293,3.6,5.4,61,0.00,,,0.00,WUHU216HW,2013-03-27 16:15:00,
2013-03-27 11:20:00,39.6,26.4,30.28,NW,315,4.7,5.4,59,0.00,,,0.00,WUHU216HW,2013-03-27 16:20:00,
2013-03-27 11:25:00,40.0,25.4,30.27,NW,315,4.5,5.1,56,0.00,,,0.00,WUHU216HW,2013-03-27 16:25:00,
2013-03-27 11:30:00,40.1,25.6,30.28,WNW,293,5.4,5.4,56,0.00,,,0.00,WUHU216HW,2013-03-27 16:30:00,
2013-03-27 11:35:00,40.1,25.1,30.28,NW,315,4.7,5.6,55,0.00,,,0.00,WUHU216HW,2013-03-27 16:35:00,
2013-03-27 11:40:00,40.0,25.0,30.28,NW,315,5.4,7.6,55,0.00,,,0.00,WUHU216HW,2013-03-27 16:40:00,
2013-03-27 11:45:00,40.3,24.8,30.27,NW,315,3.4,7.6,54,0.00,,,0.00,WUHU216HW,2013-03-27 16:45:00,
2013-03-27 11:50:00,40.5,25.9,30.28,West,270,4.0,5.8,56,0.00,,,0.00,WUHU216HW,2013-03-27 16:50:00,
2013-03-27 11:55:00,40.5,24.1,30.28,NW,315,5.6,6.0,52,0.00,,,0.00,WUHU216HW,2013-03-27 16:55:00,
2013-03-27 12:00:00,40.3,24.0,30.27,NW,315,4.9,6.0,52,0.00,,,0.00,WUHU216HW,2013-03-27 17:00:00,
2013-03-27 12:05:00,40.7,23.4,30.27,NW,315,1.3,5.8,50,0.00,,,0.00,WUHU216HW,2013-03-27 17:05:00,
2013-03-27 12:10:00,41.2,23.9,30.27,WNW,293,3.8,5.4,50,0.00,,,0.00,WUHU216HW,2013-03-27 17:10:00,
2013-03-27 12:15:00,42.3,24.5,30.27,West,270,4.7,5.4,49,0.00,,,0.00,WUHU216HW,2013-03-27 17:15:00,
2013-03-27 12:20:00,42.8,23.4,30.27,West,270,3.4,5.4,46,0.00,,,0.00,WUHU216HW,2013-03-27 17:20:00,
2013-03-27 12:25:00,41.8,21.9,30.27,West,270,5.6,6.7,45,0.00,,,0.00,WUHU216HW,2013-03-27 17:25:00,
2013-03-27 12:30:00,41.0,21.2,30.27,WNW,293,4.9,7.6,45,0.00,,,0.00,WUHU216HW,2013-03-27 17:30:00,
2013-03-27 12:35:00,40.7,20.8,30.27,West,270,3.4,7.8,45,0.00,,,0.00,WUHU216HW,2013-03-27 17:35:00,
2013-03-27 12:40:00,40.7,22.4,30.27,NW,315,6.9,7.8,48,0.00,,,0.00,WUHU216HW,2013-03-27 17:40:00,
2013-03-27 12:45:00,40.5,22.2,30.28,NW,315,7.6,7.6,48,0.00,,,0.00,WUHU216HW,2013-03-27 17:45:00,
2013-03-27 12:50:00,40.1,21.4,30.27,NW,315,5.1,7.6,47,0.00,,,0.00,WUHU216HW,2013-03-27 17:50:00,
2013-03-27 12:55:00,40.1,22.4,30.27,WNW,293,5.1,7.6,49,0.00,,,0.00,WUHU216HW,2013-03-27 17:55:00,
2013-03-27 13:00:00,40.3,22.1,30.27,WSW,248,6.3,7.6,48,0.00,,,0.00,WUHU216HW,2013-03-27 18:00:00,
2013-03-27 13:05:00,40.5,22.8,30.28,WNW,293,3.6,7.6,49,0.00,,,0.00,WUHU216HW,2013-03-27 18:05:00,
2013-03-27 13:10:00,40.9,22.1,30.27,WNW,293,3.6,8.5,47,0.00,,,0.00,WUHU216HW,2013-03-27 18:10:00,
2013-03-27 13:15:00,40.7,21.9,30.27,NW,315,5.4,8.5,47,0.00,,,0.00,WUHU216HW,2013-03-27 18:15:00,
2013-03-27 13:20:00,41.0,22.7,30.27,WNW,293,3.6,6.5,48,0.00,,,0.00,WUHU216HW,2013-03-27 18:20:00,
2013-03-27 13:25:00,41.9,21.0,30.27,WNW,293,4.3,6.5,43,0.00,,,0.00,WUHU216HW,2013-03-27 18:25:00,
2013-03-27 13:30:00,41.9,22.0,30.27,WNW,293,3.6,6.5,45,0.00,,,0.00,WUHU216HW,2013-03-27 18:30:00,
2013-03-27 13:35:00,42.1,21.2,30.27,NNW,338,3.1,5.8,43,0.00,,,0.00,WUHU216HW,2013-03-27 18:35:00,
2013-03-27 13:40:00,41.9,21.5,30.27,NW,315,4.5,6.0,44,0.00,,,0.00,WUHU216HW,2013-03-27 18:40:00,
2013-03-27 13:45:00,41.8,21.9,30.27,NW,315,4.5,6.0,45,0.00,,,0.00,WUHU216HW,2013-03-27 18:45:00,
2013-03-27 13:50:00,42.5,20.9,30.27,WSW,248,5.4,5.4,42,0.00,,,0.00,WUHU216HW,2013-03-27 18:50:00,
2013-03-27 13:55:00,43.0,22.0,30.27,West,270,4.9,6.0,43,0.00,,,0.00,WUHU216HW,2013-03-27 18:55:00,
2013-03-27 14:00:00,43.0,21.4,30.27,NW,315,6.0,7.2,42,0.00,,,0.00,WUHU216HW,2013-03-27 19:00:00,
2013-03-27 14:05:00,42.5,21.4,30.27,NW,315,2.5,7.2,43,0.00,,,0.00,WUHU216HW,2013-03-27 19:05:00,
2013-03-27 14:10:00,42.7,20.5,30.27,NW,315,4.5,6.3,41,0.00,,,0.00,WUHU216HW,2013-03-27 19:10:00,
2013-03-27 14:15:00,42.3,21.2,30.27,West,270,6.5,7.8,43,0.00,,,0.00,WUHU216HW,2013-03-27 19:15:00,
2013-03-27 14:20:00,42.1,21.2,30.27,WNW,293,6.7,8.5,43,0.00,,,0.00,WUHU216HW,2013-03-27 19:20:00,
2013-03-27 14:25:00,41.9,21.0,30.27,WNW,293,4.7,8.5,43,0.00,,,0.00,WUHU216HW,2013-03-27 19:25:00,
2013-03-27 14:30:00,41.9,19.9,30.27,West,270,3.6,6.7,41,0.00,,,0.00,WUHU216HW,2013-03-27 19:30:00,
2013-03-27 14:35:00,41.8,20.8,30.27,WNW,293,5.4,8.1,43,0.00,,,0.00,WUHU216HW,2013-03-27 19:35:00,
2013-03-27 14:40:00,41.4,21.0,30.27,WNW,293,4.9,8.1,44,0.00,,,0.00,WUHU216HW,2013-03-27 19:40:00,
2013-03-27 14:45:00,41.4,21.0,30.26,WNW,293,2.9,7.6,44,0.00,,,0.00,WUHU216HW,2013-03-27 19:45:00,
2013-03-27 14:50:00,42.3,21.8,30.26,NNW,338,3.4,6.5,44,0.00,,,0.00,WUHU216HW,2013-03-27 19:50:00,
2013-03-27 14:55:00,43.2,23.2,30.26,NW,315,4.3,5.8,45,0.00,,,0.00,WUHU216HW,2013-03-27 19:55:00,
2013-03-27 15:00:00,43.4,22.2,30.26,WNW,293,6.0,6.0,43,0.00,,,0.00,WUHU216HW,2013-03-27 20:00:00,
2013-03-27 15:05:00,43.0,22.0,30.26,NW,315,2.9,6.0,43,0.00,,,0.00,WUHU216HW,2013-03-27 20:05:00,
2013-03-27 15:10:00,43.4,22.8,30.26,NNW,338,4.0,6.0,44,0.00,,,0.00,WUHU216HW,2013-03-27 20:10:00,
2013-03-27 15:15:00,42.7,22.1,30.25,North,0,2.2,5.4,44,0.00,,,0.00,WUHU216HW,2013-03-27 20:15:00,
2013-03-27 15:20:00,42.1,22.1,30.25,North,0,2.5,5.4,45,0.00,,,0.00,WUHU216HW,2013-03-27 20:20:00,
2013-03-27 15:25:00,41.4,22.5,30.26,NW,315,4.0,6.3,47,0.00,,,0.00,WUHU216HW,2013-03-27 20:25:00,
2013-03-27 15:30:00,42.5,21.4,30.26,NW,315,3.4,6.9,43,0.00,,,0.00,WUHU216HW,2013-03-27 20:30:00,
2013-03-27 15:35:00,43.6,21.9,30.25,NW,315,4.0,6.9,42,0.00,,,0.00,WUHU216HW,2013-03-27 20:35:00,
2013-03-27 15:40:00,44.8,22.0,30.25,NNW,338,5.4,5.8,40,0.00,,,0.00,WUHU216HW,2013-03-27 20:40:00,
2013-03-27 15:45:00,45.4,21.8,30.24,WNW,293,4.0,5.6,39,0.00,,,0.00,WUHU216HW,2013-03-27 20:45:00,
2013-03-27 15:50:00,45.7,21.4,30.25,NNW,338,5.6,6.9,38,0.00,,,0.00,WUHU216HW,2013-03-27 20:50:00,
2013-03-27 15:55:00,45.7,22.1,30.25,NW,315,4.9,6.9,39,0.00,,,0.00,WUHU216HW,2013-03-27 20:55:00,
2013-03-27 16:00:00,45.2,21.0,30.25,NNW,338,4.3,6.9,38,0.00,,,0.00,WUHU216HW,2013-03-27 21:00:00,
2013-03-27 16:05:00,45.2,21.0,30.25,NW,315,4.5,7.6,38,0.00,,,0.00,WUHU216HW,2013-03-27 21:05:00,
2013-03-27 16:10:00,45.5,21.2,30.25,NW,315,5.8,7.6,38,0.00,,,0.00,WUHU216HW,2013-03-27 21:10:00,
2013-03-27 16:15:00,45.4,21.8,30.24,NNW,338,5.1,7.4,39,0.00,,,0.00,WUHU216HW,2013-03-27 21:15:00,
2013-03-27 16:20:00,45.5,22.6,30.25,NW,315,6.5,7.4,40,0.00,,,0.00,WUHU216HW,2013-03-27 21:20:00,
2013-03-27 16:25:00,45.5,24.2,30.24,North,0,1.6,7.4,43,0.00,,,0.00,WUHU216HW,2013-03-27 21:25:00,
2013-03-27 16:30:00,46.1,23.6,30.24,NNW,338,6.3,6.5,41,0.00,,,0.00,WUHU216HW,2013-03-27 21:30:00,
2013-03-27 16:35:00,46.1,21.1,30.24,NW,315,3.4,6.3,37,0.00,,,0.00,WUHU216HW,2013-03-27 21:35:00,
2013-03-27 16:40:00,46.3,21.9,30.24,NNW,338,4.3,6.3,38,0.00,,,0.00,WUHU216HW,2013-03-27 21:40:00,
2013-03-27 16:45:00,46.4,22.8,30.24,NW,315,4.7,5.6,39,0.00,,,0.00,WUHU216HW,2013-03-27 21:45:00,
2013-03-27 16:50:00,46.3,21.2,30.24,NW,315,4.7,6.5,37,0.00,,,0.00,WUHU216HW,2013-03-27 21:50:00,
2013-03-27 16:55:00,45.9,22.2,30.24,NW,315,5.1,6.5,39,0.00,,,0.00,WUHU216HW,2013-03-27 21:55:00,
2013-03-27 17:00:00,45.7,21.4,30.24,NW,315,3.4,5.4,38,0.00,,,0.00,WUHU216HW,2013-03-27 22:00:00,
2013-03-27 17:05:00,45.2,22.2,30.24,NNE,23,2.9,5.6,40,0.00,,,0.00,WUHU216HW,2013-03-27 22:05:00,
2013-03-27 17:10:00,45.4,22.4,30.24,North,0,4.0,5.6,40,0.00,,,0.00,WUHU216HW,2013-03-27 22:10:00,
2013-03-27 17:15:00,44.6,21.8,30.24,North,0,1.8,4.7,40,0.00,,,0.00,WUHU216HW,2013-03-27 22:15:00,
2013-03-27 17:20:00,45.7,23.3,30.24,NNW,338,1.6,4.7,41,0.00,,,0.00,WUHU216HW,2013-03-27 22:20:00,
2013-03-27 17:25:00,46.6,24.7,30.24,NW,315,4.3,4.3,42,0.00,,,0.00,WUHU216HW,2013-03-27 22:25:00,
2013-03-27 17:30:00,46.8,23.0,30.24,NW,315,4.0,4.9,39,0.00,,,0.00,WUHU216HW,2013-03-27 22:30:00,
2013-03-27 17:35:00,46.3,22.6,30.24,NW,315,4.0,5.4,39,0.00,,,0.00,WUHU216HW,2013-03-27 22:35:00,
2013-03-27 17:40:00,46.1,21.8,30.24,NW,315,3.8,5.4,38,0.00,,,0.00,WUHU216HW,2013-03-27 22:40:00,
2013-03-27 17:45:00,45.4,21.1,30.24,WNW,293,3.4,5.4,38,0.00,,,0.00,WUHU216HW,2013-03-27 22:45:00,
2013-03-27 17:50:00,45.2,21.6,30.24,NW,315,3.6,6.5,39,0.00,,,0.00,WUHU216HW,2013-03-27 22:50:00,
2013-03-27 17:55:00,44.6,20.4,30.24,West,270,3.8,6.5,38,0.00,,,0.00,WUHU216HW,2013-03-27 22:55:00,
2013-03-27 18:00:00,44.6,21.2,30.24,NW,315,2.7,6.5,39,0.00,,,0.00,WUHU216HW,2013-03-27 23:00:00,
2013-03-27 18:05:00,44.6,22.3,30.24,NW,315,4.7,5.8,41,0.00,,,0.00,WUHU216HW,2013-03-27 23:05:00,
2013-03-27 18:10:00,44.3,22.5,30.24,NW,315,3.6,5.8,42,0.00,,,0.00,WUHU216HW,2013-03-27 23:10:00,
2013-03-27 18:15:00,43.9,22.2,30.24,NW,315,2.9,5.4,42,0.00,,,0.00,WUHU216HW,2013-03-27 23:15:00,
2013-03-27 18:20:00,43.9,22.2,30.24,NW,315,3.1,5.4,42,0.00,,,0.00,WUHU216HW,2013-03-27 23:20:00,
2013-03-27 18:25:00,44.1,23.5,30.24,NW,315,2.7,4.0,44,0.00,,,0.00,WUHU216HW,2013-03-27 23:25:00,
2013-03-27 18:30:00,43.9,23.9,30.24,NNW,338,1.3,4.0,45,0.00,,,0.00,WUHU216HW,2013-03-27 23:30:00,
2013-03-27 18:35:00,43.6,24.0,30.24,NNW,338,0.9,3.1,46,0.00,,,0.00,WUHU216HW,2013-03-27 23:35:00,
2013-03-27 18:40:00,42.3,23.4,30.24,NNW,338,1.3,2.5,47,0.00,,,0.00,WUHU216HW,2013-03-27 23:40:00,
2013-03-27 18:45:00,41.0,22.7,30.24,NW,315,0.9,1.8,48,0.00,,,0.00,WUHU216HW,2013-03-27 23:45:00,
2013-03-27 18:50:00,40.3,22.1,30.24,NNW,338,0.9,1.8,48,0.00,,,0.00,WUHU216HW,2013-03-27 23:50:00,
2013-03-27 18:55:00,39.6,22.0,30.24,NNW,338,1.1,1.3,49,0.00,,,0.00,WUHU216HW,2013-03-27 23:55:00,
2013-03-27 19:00:00,39.2,21.1,30.24,NW,315,1.3,1.3,48,0.00,,,0.00,WUHU216HW,2013-03-28 00:00:00,
2013-03-27 19:05:00,38.9,21.3,30.24,NW,315,1.3,1.8,49,0.00,,,0.00,WUHU216HW,2013-03-28 00:05:00,
2013-03-27 19:10:00,38.5,21.0,30.24,NW,315,1.1,1.8,49,0.00,,,0.00,WUHU216HW,2013-03-28 00:10:00,
2013-03-27 19:15:00,38.0,21.4,30.24,NW,315,1.1,1.8,51,0.00,,,0.00,WUHU216HW,2013-03-28 00:15:00,
2013-03-27 19:20:00,37.4,21.8,30.24,NW,315,0.0,1.1,53,0.00,,,0.00,WUHU216HW,2013-03-28 00:20:00,
2013-03-27 19:25:00,37.1,21.5,30.24,NW,315,0.7,2.5,53,0.00,,,0.00,WUHU216HW,2013-03-28 00:25:00,
2013-03-27 19:30:00,36.5,21.9,30.24,NW,315,0.0,2.5,55,0.00,,,0.00,WUHU216HW,2013-03-28 00:30:00,
2013-03-27 19:35:00,36.0,21.0,30.24,NW,315,0.0,1.3,54,0.00,,,0.00,WUHU216HW,2013-03-28 00:35:00,
2013-03-27 19:40:00,35.3,20.3,30.24,NW,315,0.0,0.0,54,0.00,,,0.00,WUHU216HW,2013-03-28 00:40:00,
2013-03-27 19:45:00,34.9,20.8,30.24,NW,315,0.0,0.0,56,0.00,,,0.00,WUHU216HW,2013-03-28 00:45:00,
2013-03-27 19:50:00,34.9,20.8,30.24,NW,315,0.0,0.0,56,0.00,,,0.00,WUHU216HW,2013-03-28 00:50:00,
2013-03-27 19:55:00,34.9,20.8,30.24,NW,315,0.0,0.0,56,0.00,,,0.00,WUHU216HW,2013-03-28 00:55:00,
2013-03-27 20:00:00,34.4,20.3,30.24,NW,315,0.0,0.0,56,0.00,,,0.00,WUHU216HW,2013-03-28 01:00:00,
2013-03-27 20:05:00,34.0,19.9,30.24,NW,315,0.0,0.0,56,0.00,,,0.00,WUHU216HW,2013-03-28 01:05:00,
2013-03-27 20:10:00,33.5,19.4,30.24,NW,315,0.0,0.0,56,0.00,,,0.00,WUHU216HW,2013-03-28 01:10:00,
2013-03-27 20:15:00,33.1,19.1,30.24,NW,315,0.0,0.0,56,0.00,,,0.00,WUHU216HW,2013-03-28 01:15:00,
2013-03-27 20:20:00,32.8,19.2,30.24,NW,315,0.0,0.0,57,0.00,,,0.00,WUHU216HW,2013-03-28 01:20:00,
2013-03-27 20:25:00,32.4,19.3,30.24,NW,315,0.0,0.0,58,0.00,,,0.00,WUHU216HW,2013-03-28 01:25:00,
2013-03-27 20:30:00,32.0,18.9,30.24,NW,315,0.0,0.0,58,0.00,,,0.00,WUHU216HW,2013-03-28 01:30:00,
2013-03-27 20:35:00,31.7,19.0,30.25,NW,315,0.0,0.0,59,0.00,,,0.00,WUHU216HW,2013-03-28 01:35:00,
2013-03-27 20:40:00,31.3,19.1,30.24,NW,315,0.0,0.0,60,0.00,,,0.00,WUHU216HW,2013-03-28 01:40:00,
2013-03-27 20:45:00,31.1,18.9,30.25,NW,315,0.0,0.0,60,0.00,,,0.00,WUHU216HW,2013-03-28 01:45:00,
2013-03-27 20:50:00,31.0,19.1,30.25,NW,315,0.0,0.0,61,0.00,,,0.00,WUHU216HW,2013-03-28 01:50:00,
2013-03-27 20:55:00,30.8,19.3,30.25,NW,315,0.0,0.0,62,0.00,,,0.00,WUHU216HW,2013-03-28 01:55:00,
2013-03-27 21:00:00,30.6,19.1,30.25,NW,315,0.0,0.0,62,0.00,,,0.00,WUHU216HW,2013-03-28 02:00:00,
2013-03-27 21:05:00,30.4,19.3,30.25,NW,315,0.0,0.0,63,0.00,,,0.00,WUHU216HW,2013-03-28 02:05:00,
2013-03-27 21:10:00,30.2,19.1,30.25,NW,315,0.0,0.0,63,0.00,,,0.00,WUHU216HW,2013-03-28 02:10:00,
2013-03-27 21:15:00,30.1,18.9,30.25,NW,315,0.0,0.0,63,0.00,,,0.00,WUHU216HW,2013-03-28 02:15:00,
2013-03-27 21:20:00,29.9,19.4,30.25,NW,315,0.0,0.0,65,0.00,,,0.00,WUHU216HW,2013-03-28 02:20:00,
2013-03-27 21:25:00,29.9,19.4,30.26,NW,315,0.0,0.0,65,0.00,,,0.00,WUHU216HW,2013-03-28 02:25:00,
2013-03-27 21:30:00,29.7,19.4,30.26,NW,315,0.0,0.0,65,0.00,,,0.00,WUHU216HW,2013-03-28 02:30:00,
2013-03-27 21:35:00,29.7,19.7,30.26,NW,315,0.0,0.0,66,0.00,,,0.00,WUHU216HW,2013-03-28 02:35:00,
2013-03-27 21:40:00,29.7,19.4,30.26,NW,315,0.0,0.0,65,0.00,,,0.00,WUHU216HW,2013-03-28 02:40:00,
2013-03-27 21:45:00,29.2,18.5,30.26,NW,315,0.0,0.0,64,0.00,,,0.00,WUHU216HW,2013-03-28 02:45:00,
2013-03-27 21:50:00,29.0,18.6,30.26,NW,315,0.0,0.0,65,0.00,,,0.00,WUHU216HW,2013-03-28 02:50:00,
2013-03-27 21:55:00,28.4,18.2,30.26,NW,315,0.0,0.0,65,0.00,,,0.00,WUHU216HW,2013-03-28 02:55:00,
2013-03-27 22:00:00,28.3,18.4,30.26,NW,315,0.0,0.0,66,0.00,,,0.00,WUHU216HW,2013-03-28 03:00:00,
2013-03-27 22:05:00,28.1,18.5,30.26,NW,315,0.0,0.0,67,0.00,,,0.00,WUHU216HW,2013-03-28 03:05:00,
2013-03-27 22:10:00,27.9,18.4,30.27,NW,315,0.0,0.0,67,0.00,,,0.00,WUHU216HW,2013-03-28 03:10:00,
2013-03-27 22:15:00,27.7,18.5,30.27,NW,315,0.0,0.0,68,0.00,,,0.00,WUHU216HW,2013-03-28 03:15:00,
2013-03-27 22:20:00,27.7,18.5,30.27,NW,315,0.0,0.0,68,0.00,,,0.00,WUHU216HW,2013-03-28 03:20:00,
2013-03-27 22:25:00,27.5,18.7,30.27,NW,315,0.0,0.0,69,0.00,,,0.00,WUHU216HW,2013-03-28 03:25:00,
2013-03-27 22:30:00,27.4,18.9,30.27,NW,315,0.0,0.0,70,0.00,,,0.00,WUHU216HW,2013-03-28 03:30:00,
2013-03-27 22:35:00,27.4,18.9,30.27,NW,315,0.0,0.0,70,0.00,,,0.00,WUHU216HW,2013-03-28 03:35:00,
2013-03-27 22:40:00,27.2,18.7,30.27,NW,315,0.0,0.0,70,0.00,,,0.00,WUHU216HW,2013-03-28 03:40:00,
2013-03-27 22:45:00,27.0,18.5,30.27,NW,315,0.0,0.0,70,0.00,,,0.00,WUHU216HW,2013-03-28 03:45:00,
2013-03-27 22:50:00,26.8,18.4,30.27,NW,315,0.0,0.0,70,0.00,,,0.00,WUHU216HW,2013-03-28 03:50:00,
2013-03-27 22:55:00,26.6,18.2,30.27,NW,315,0.0,0.0,70,0.00,,,0.00,WUHU216HW,2013-03-28 03:55:00,
2013-03-27 23:00:00,26.5,18.3,30.27,NW,315,0.0,0.0,71,0.00,,,0.00,WUHU216HW,2013-03-28 04:00:00,
2013-03-27 23:05:00,26.6,18.8,30.27,NW,315,0.0,0.0,72,0.00,,,0.00,WUHU216HW,2013-03-28 04:05:00,
2013-03-27 23:10:00,26.5,18.6,30.27,NW,315,0.0,0.0,72,0.00,,,0.00,WUHU216HW,2013-03-28 04:10:00,
2013-03-27 23:15:00,26.3,18.5,30.27,NW,315,0.0,0.0,72,0.00,,,0.00,WUHU216HW,2013-03-28 04:15:00,
2013-03-27 23:20:00,26.1,18.3,30.27,NW,315,0.0,0.0,72,0.00,,,0.00,WUHU216HW,2013-03-28 04:20:00,
2013-03-27 23:25:00,25.9,18.1,30.27,NW,315,0.0,0.0,72,0.00,,,0.00,WUHU216HW,2013-03-28 04:25:00,
2013-03-27 23:30:00,25.7,17.9,30.27,NW,315,0.0,0.0,72,0.00,,,0.00,WUHU216HW,2013-03-28 04:30:00,
2013-03-27 23:35:00,25.7,18.3,30.27,NW,315,0.0,0.0,73,0.00,,,0.00,WUHU216HW,2013-03-28 04:35:00,
2013-03-27 23:40:00,25.6,18.1,30.27,NW,315,0.0,0.0,73,0.00,,,0.00,WUHU216HW,2013-03-28 04:40:00,
2013-03-27 23:45:00,25.6,18.1,30.27,North,0,0.0,0.0,73,0.00,,,0.00,WUHU216HW,2013-03-28 04:45:00,
2013-03-27 23:50:00,25.6,18.1,30.27,North,0,0.0,0.0,73,0.00,,,0.00,WUHU216HW,2013-03-28 04:50:00,
2013-03-27 23:55:00,25.4,17.9,30.27,North,0,0.0,0.0,73,0.00,,,0.00,WUHU216HW,2013-03-28 04:55:00,